DMSP F-17

operational
NORAD ID: 29522 Int'l Des: 2006-050 Owner: AFSMC Country: US
LEOCIRCULARRETROGRADESSO

About DMSP F-17

Description loading...

Live Position

Loading 3D Globe...

Upcoming Passes

Altitude History

Altitude vs Time

uPlot chart will show altitude changes over time

Two-Line Element Set

1 29522U 06050A 25278.45889249 .00000340 00000-0 19841-3 0 9997
2 29522 98.7420 285.2579 0011144 66.3392 293.8950 14.14875965976390
Epoch: Oct 5, 2025 • Age: 8 hours

Current Status

Altitude 874.8 km
Velocity 7.41 km/s
Sub-Earth Point -62.73°S, 149.36°E
Launch Date Nov 4, 2006
Age 18.9 years
Type other

Technical Details

Classification Payload
Mass 1217.00 kg
Dry Mass 1217.00 kg
Total Mass 1217.00 kg
Length 4.40 m
Diameter 1.20 m
Span 6.60 m
Shape Box + Pan
Manufacturer LMEW
Bus Type Block 5D
Phase Status In Orbit
Owner/State AFSMC/US

Large Constellations

Loading constellations...